AO-07 1 07530U 74089B 15295.92523869 -.00000014 +00000-0 +18663-3 0 9992 2 07530 101.5390 267.8408 0012382 054.8230 007.1734 12.53617265873030 FO-29 1 24278U 96046B 15296.15416822 -.00000003 00000-0 30003-4 0 9994 2 24278 98.5592 247.7399 0351403 99.0945 331.3468 13.53058067947338 SO-33 1 25509U 98061B 15296.25158755 .00000445 00000-0 76033-4 0 9992 2 25509 31.4315 245.3233 0347470 116.2969 247.3778 14.30083274887767 RS-22 1 27939U 03042A 15296.45221358 .00000943 00000-0 17951-3 0 9994 2 27939 97.8577 92.7703 0012917 346.2117 13.8756 14.66185873644987 HO-68 1 36122U 09072B 15296.08500479 -.00000059 00000-0 -43517-4 0 9998 2 36122 100.1795 336.2450 0007640 179.3042 180.8105 13.16329960281289 AO-73 1 39444U 13066AE 15296.11116382 .00001852 00000-0 24079-3 0 9997 2 39444 97.7162 354.1013 0060907 78.9456 281.8598 14.80546574102341 EO-79 1 40025U 14033R 15296.31143558 .00001874 00000-0 21286-3 0 9997 2 40025 97.9398 196.6874 0014014 120.8601 239.3995 14.87451941 72831 XW-2A 1 40903U 15049E 15296.53719098 .00073680 00000-0 26525-2 0 9996 2 40903 97.4653 304.1477 0038991 237.2157 238.7467 15.27574073 5097 XW-2C 1 40906U 15049H 15296.44498256 .00004247 00000-0 24818-3 0 9996 2 40906 97.4569 303.8352 0016872 133.3687 4.5821 15.12302541 5054 LILACSAT-2 1 40908U 15049K 15296.45598256 .00002376 00000-0 14265-3 0 9996 2 40908 97.4629 303.8481 0017740 126.7623 7.5947 15.11736202 5053 XW-2E 1 40909U 15049L 15296.43333247 .00006432 00000-0 37063-3 0 9990 2 40909 97.4568 303.8388 0016317 136.2752 331.1072 15.12625796 5051 UO-11 1 14781U 84021B 15296.20835829 .00000808 00000-0 10696-3 0 9997 2 14781 97.7861 350.0372 0008990 22.2285 337.9317 14.82543666700991 AO-16 1 20439U 90005D 15295.88259940 +.00000135 +00000-0 +65598-4 0 9995 2 20439 098.5497 230.2508 0011492 138.7199 263.1787 14.32577801344774 LO-19 1 20442U 90005G 15296.35207748 .00000149 00000-0 70633-4 0 9992 2 20442 98.5204 229.8814 0012667 125.9424 234.2937 14.32767966345299 AO-27 1 22825U 93061C 15295.90348855 +.00000122 +00000-0 +64990-4 0 9999 2 22825 098.7244 246.1383 0007483 299.3274 092.4544 14.29910718150916 IO-26 1 22826U 93061D 15295.92547489 +.00000133 +00000-0 +68763-4 0 9990 2 22826 098.7187 246.3122 0007928 289.6774 070.3553 14.30230412151090 GO-32 1 25397U 98043D 15296.09681892 .00000070 00000-0 49457-4 0 9996 2 25397 98.5351 242.6167 0001006 14.4117 48.1157 14.23565002897998 NO-44 1 26931U 01043C 15296.39293135 .00000125 00000-0 80054-4 0 9996 2 26931 67.0517 206.3734 0006491 277.0617 82.9746 14.30351932734139 SO-50 1 27607U 02058C 15296.12720625 .00000630 00000-0 10960-3 0 9993 2 27607 64.5544 168.0935 0082869 263.8640 95.3016 14.74886741690151 CO-55 1 27844U 03031E 15295.83663313 +.00000257 +00000-0 +13656-3 0 9995 2 27844 098.6962 302.5500 0008713 295.0759 064.9514 14.21859693638530 CO-57 1 27848U 03031J 15295.97116808 +.00000230 +00000-0 +12496-3 0 9998 2 27848 098.7058 302.6560 0008694 303.1890 120.2836 14.21498972638467 AO-51 1 28375U 04025K 15295.87401868 +.00000266 +00000-0 +91839-4 0 9998 2 28375 098.3033 232.7125 0081741 304.5521 054.7973 14.41709035594823 CP3 1 31129U 07012N 15295.89329705 +.00001139 +00000-0 +25410-3 0 9990 2 31129 097.9977 256.2361 0094976 276.0697 140.7314 14.56000230451666 CO-65 1 32785U 08021C 15296.16874756 .00001514 00000-0 17407-3 0 9996 2 32785 97.6347 334.9353 0013530 10.6709 61.8958 14.87132634405250 PRISM 1 33493U 09002B 15296.52099012 .00003522 00000-0 33679-3 0 9997 2 33493 98.2399 140.1801 0014976 269.3931 90.5641 14.93865380365735 SOHLA-1 1 33496U 09002E 15296.42226286 .00000554 00000-0 97652-4 0 9998 2 33496 98.2299 65.5336 0007509 112.9940 288.5940 14.71449787362033 TISAT-1 1 36799U 10035E 15296.24400883 .00004019 00000-0 43278-3 0 9996 2 36799 98.0209 38.1838 0013715 142.9891 247.4203 14.88979289286010 STUDSAT 1 36801U 10035G 15295.93760032 +.00028892 +00000-0 +15026-2 0 9994 2 36801 098.0730 062.9289 0006017 069.6412 290.5465 15.16000580287177 ALMASAT-1 1 38078U 12006B 15295.95072966 +.00038871 +34459-5 +64042-3 0 9997 2 38078 069.4504 276.6769 0445958 079.5503 285.5518 14.86281051193972 CUBEBUG-1 1 39153U 13018D 15296.46162136 .00001667 00000-0 22976-3 0 9995 2 39153 98.0123 20.4398 0016904 194.4604 165.6126 14.79468910134442 ESTCUBE-1 1 39161U 13021C 15296.39939621 .00000977 00000-0 16601-3 0 9992 2 39161 98.0656 18.1761 0008458 267.7800 92.2446 14.71348844132091 DUCHIFAT-1 1 40021U 14033M 15296.45641524 .00003118 00000-0 34116-3 0 9993 2 40021 97.9421 197.3915 0014676 120.0402 240.2272 14.88479115 72881 NANOSATCBR1 1 40024U 14033Q 15296.28319092 .00003011 00000-0 33364-3 0 9995 2 40024 97.9402 196.8872 0013890 119.9932 240.2665 14.88004119 72841 DTUSAT-2 1 40030U 14033W 15296.50350390 .00001749 00000-0 20080-3 0 9990 2 40030 97.9384 196.5226 0013572 114.0819 246.1818 14.87081372 72844 ANTELSAT 1 40034U 14033AA 15296.57885190 .00001340 00000-0 21059-3 0 9996 2 40034 97.9255 185.6955 0061126 68.2119 292.5601 14.72953693 72195 MET-2/21 1 22782U 93055A 15295.92820623 +.00000052 +00000-0 +34057-4 0 9997 2 22782 082.5475 142.3180 0021757 325.5909 149.9192 13.83777213117992 OKEAN-4 1 23317U 94066A 15295.96068951 +.00001034 +00000-0 +11291-3 0 9992 2 23317 082.5369 325.3954 0018456 265.8020 140.6011 14.86866086136296 NOAA-14 1 23455U 94089A 15296.41145322 .00000021 00000-0 33506-4 0 9998 2 23455 98.7448 15.1782 0010497 76.9764 345.3768 14.14055800 73650 NOAA-15 1 25338U 98030A 15296.52133118 .00000136 00000-0 76205-4 0 9992 2 25338 98.7785 295.2833 0011092 150.9626 209.2172 14.25669581907120 RESURS 1 25394U 98043A 15295.90530772 +.00000026 +00000-0 +29339-4 0 9990 2 25394 098.4815 246.4748 0000222 257.1353 134.6709 14.24458797898441 FENGYUN1 1 25730U 99025A 15295.86748727 +.00000750 +00000-0 +42007-3 0 9991 2 25730 098.9537 260.7676 0020071 135.4403 277.4696 14.13665693847053 OKEAN-0 1 25860U 99039A 15295.95809502 .00000729 00000-0 11308-3 0 9995 2 25860 98.1115 264.3421 0000864 81.9134 328.9777 14.76165794874837 NOAA-16 1 26536U 00055A 15296.53603499 .00000030 00000-0 40207-4 0 9994 2 26536 98.9292 2.3051 0009828 225.6937 134.3430 14.13111367777787 NOAA-17 1 27453U 02032A 15296.51274584 .00000080 00000-0 51732-4 0 9997 2 27453 98.3543 276.2423 0011927 160.8883 199.2746 14.24904036692935 NOAA-18 1 28654U 05018A 15296.51205407 .00000126 00000-0 94043-4 0 9999 2 28654 99.1926 292.3406 0013774 324.4948 35.5305 14.12241417537187 NOAA-19 1 33591U 09005A 15296.49815826 .00000234 00000-0 15242-3 0 9997 2 33591 99.0054 246.7739 0014109 164.4722 195.6884 14.11991809345599 HUBBLE 1 20580U 90037B 15295.74801471 .00002507 00000-0 14849-3 0 9991 2 20580 28.4710 32.7305 0003006 160.5994 332.8456 15.07790184199082 ISS 1 25544U 98067A 15296.24586955 .00012191 00000-0 18815-3 0 9997 2 25544 51.6447 164.9292 0006669 69.1218 36.8787 15.54546855967960 CO-58 1 28895U 05043F 15296.51071001 .00000995 00000-0 20284-3 0 9994 2 28895 97.8217 117.6076 0015766 249.7606 110.1902 14.62937998532355 FALCON 1 30776U 07006E 15295.95463060 +.00012840 +00000-0 +48785-3 0 9991 2 30776 035.4284 279.2246 0002405 275.0934 111.6121 15.26038920475829 MAST 1 31126U 07012K 15296.15553394 .00000684 00000-0 15715-3 0 9991 2 31126 97.9782 258.4953 0089404 256.6782 167.8008 14.56180291452114 CAPE1 1 31130U 07012P 15296.11111334 .00001046 00000-0 23566-3 0 9992 2 31130 97.9995 255.8786 0095716 277.5541 81.4792 14.55662563451495 COMPASS 1 32787U 08021E 15295.85413250 .00002968 00000-0 30383-3 0 9993 2 32787 97.6371 339.5405 0012713 355.7941 4.3169 14.91195142405536 AAUSAT2 1 32788U 08021F 15295.89082929 +.00003921 +00000-0 +38879-3 0 9991 2 32788 097.6385 341.3108 0011999 352.8382 007.2664 14.92295109405543 DO-64 1 32789U 08021G 15295.76683088 +.00006889 +00000-0 +54334-3 0 9991 2 32789 097.6461 354.0810 0008448 350.2285 134.7599 15.01029734406105 CO-66 1 32791U 08021J 15295.84202874 .00002108 00000-0 22857-3 0 9998 2 32791 97.6369 336.9830 0013728 3.4242 356.7067 14.89140520405313 RS-30 1 32953U 08025A 15296.36899427 .00000010 00000-0 -13620-7 0 9999 2 32953 82.5006 254.5162 0018867 156.5707 203.6235 12.43064262336532 METEOR-M 1 35865U 09049A 15296.57743801 .00000026 00000-0 30734-4 0 9996 2 35865 98.4871 332.2333 0003578 100.5075 52.6534 14.22051137316456 RS-38 1 35869U 09049E 15296.55698614 .00000024 00000-0 29730-4 0 9991 2 35869 98.4785 331.7809 0005546 98.6366 261.5448 14.22313151316501 JUGNU 1 37839U 11058B 15295.88012889 +.00000415 +00000-0 +79420-4 0 9997 2 37839 019.9601 148.3847 0018919 013.8108 100.9695 14.12495712208187 SRMSAT 1 37841U 11058D 15295.78074484 +.00000400 +00000-0 +75027-4 0 9991 2 37841 019.9710 178.2926 0011732 293.3376 127.4634 14.10503303207897 RAX-2 1 37853U 11061D 15295.82178624 +.00009328 +00000-0 +56053-3 0 9999 2 37853 101.6973 209.6442 0191553 062.0729 299.9727 14.97190711215713 AUBIESAT 1 37854U 11061E 15296.21062298 .00010998 00000-0 64024-3 0 9995 2 37854 101.6886 214.3847 0182304 54.8935 306.9213 14.99378258216391 HRBE 1 37855U 11061F 15295.72137631 .00010542 00000-0 60005-3 0 9995 2 37855 101.6950 211.9081 0196911 59.1863 302.8561 14.98207583216240 HORYU-2 1 38340U 12025D 15295.90188623 .00001752 00000-0 27089-3 0 9991 2 38340 98.3291 269.2502 0013043 53.7397 306.5014 14.74564171184353 RS-40 1 38735U 12041C 15296.45676565 .00000040 00000-0 21992-3 0 9991 2 38735 82.4770 340.0041 0015542 260.5864 99.3459 12.42570456146844 PROITERES 1 38756U 12047B 15296.53753483 .00000758 00000-0 11796-3 0 9991 2 38756 98.2263 38.0453 0011017 246.8716 113.1340 14.75957194167939 BEESAT-3 1 39134U 13015E 15296.19741782 .00009479 00000-0 53384-3 0 9997 2 39134 64.8741 7.5611 0023399 237.6500 122.2360 15.13475593138068 BEESAT-2 1 39136U 13015G 15296.20151509 .00007959 00000-0 47377-3 0 9999 2 39136 64.8749 11.0571 0023517 235.7967 124.0928 15.11621136138009 ZACUBE-1 1 39417U 13066B 15295.85684066 +.00001500 +00000-0 +19896-3 0 9997 2 39417 097.7158 353.5010 0061601 080.8953 279.9223 14.79966145103513 TRITON-1 1 39427U 13066M 15296.52998647 .00001181 00000-0 19895-3 0 9990 2 39427 97.7000 339.6409 0116751 116.9923 244.3260 14.66848233102689 DELFIN3XT 1 39428U 13066N 15296.16118283 .00002243 00000-0 37492-3 0 9994 2 39428 97.7019 337.3907 0124984 123.8264 237.4913 14.65718973102482 GOMX-1 1 39430U 13066Q 15296.53166779 .00001015 00000-0 19534-3 0 9994 2 39430 97.6956 330.3081 0153935 144.8928 216.2547 14.58254443102081 LO-74 1 39440U 13066AA 15295.69969864 +.00001336 +00000-0 +19605-3 0 9992 2 39440 097.7095 347.6013 0083203 095.6356 265.4349 14.74762759101921 PUCPSAT-1 1 39442U 13066AC 15296.18762836 .00002618 00000-0 28125-3 0 9990 2 39442 97.7274 3.2208 0034055 61.7246 298.7401 14.88992848102913 SPROUT 1 39770U 14029E 15296.08991463 .00003745 00000-0 45302-3 0 9991 2 39770 97.8723 31.2058 0010535 138.2306 221.9747 14.84253828 76606 POPSAT-HIP1 1 40028U 14033U 15296.56280461 .00001773 00000-0 20223-3 0 9990 2 40028 97.9429 197.0440 0015339 117.8444 242.4363 14.87322977 72868 EO-80 1 40032U 14033Y 15296.51860368 .00001870 00000-0 21467-3 0 9999 2 40032 97.9391 196.5494 0013531 114.2595 246.0036 14.87008674 72844 VELOX-1 1 40057U 14034E 15296.53142575 .00001835 00000-0 27318-3 0 9994 2 40057 98.2094 16.7104 0011234 182.7344 177.3821 14.76143554 70814 DAURIA DX 1 1 40071U 14037C 15296.40709879 .00000861 00000-0 11973-3 0 9993 2 40071 98.3475 13.0373 0008390 181.1849 178.9356 14.80544593 69769 UKUBE-1 1 40074U 14037F 15296.48314733 .00001823 00000-0 23415-3 0 9998 2 40074 98.3501 14.3240 0004624 179.9047 180.2169 14.82506111 69843 HODOYOSHI-1 1 40299U 14070B 15296.54302853 .00004529 00000-0 21178-3 0 9991 2 40299 97.4490 16.4685 0014772 48.6296 47.3103 15.20184860 53310 CHUBUSAT-1 1 40300U 14070C 15296.50649841 .00004758 00000-0 23300-3 0 9994 2 40300 97.4459 15.3412 0023204 49.6970 46.1891 15.18409255 53242 QSAT-EOS 1 40301U 14070D 15296.50607317 .00008542 00000-0 41249-3 0 9994 2 40301 97.4417 14.5733 0032318 49.9864 45.0271 15.18431546 53209 TSUBAME 1 40302U 14070E 15296.54353663 .00005308 00000-0 29099-3 0 9997 2 40302 97.4391 12.6127 0043717 55.5579 52.0501 15.13779706 53086 FIREBIRD FU3 1 40377U 15003B 15296.40779171 .00012331 00000-0 59247-3 0 9999 2 40377 99.1040 353.6698 0153401 192.7669 166.9652 15.09160142 39871 FIREBIRD FU4 1 40378U 15003C 15296.40506039 .00012309 00000-0 59087-3 0 9998 2 40378 99.1040 353.6749 0153675 192.7568 166.9749 15.09158517 39870 GRIFEX 1 40379U 15003D 15296.11579441 .00010675 00000-0 52592-3 0 9992 2 40379 99.1053 353.0737 0155483 195.6352 164.0041 15.08144883 39816 LAMBDA-SAT 1 40458U 98067GB 15136.30676273 .20783109 12527-4 14817-2 0 9995 2 40458 051.6075 233.7697 0010355 318.5347 043.1720 16.39926603 21161 NO-84 1 40654U 15296.26685219 +.00034638 +00000-0 +82990-3 0 01640 2 40654 054.9944 023.5165 0233660 203.1548 155.8814 15.17598298023597 NO-83 1 40655U 15296.44772702 +.00048218 +00000-0 +11152-2 0 01702 2 40655 054.9923 021.8990 0227835 204.1063 154.9143 15.19357752023632 DEORBITSAIL 1 40719U 15032E 15295.94796291 +.00002875 +00000-0 +43595-3 0 9992 2 40719 098.0392 184.3944 0015613 284.1277 075.8196 14.74823728015361 NUDT-PHONESAT 1 40900U 15049B 15296.41344885 .00009846 00000-0 54943-3 0 9997 2 40900 97.4499 303.8343 0016857 154.1020 315.1482 15.13629489 5064 XW-2D 1 40907U 15049J 15296.44608630 .00004383 00000-0 25639-3 0 9999 2 40907 97.4530 303.8193 0016479 132.0500 5.8919 15.12255288 5056 XW-2F 1 40910U 15049M 15296.44897507 .00006163 00000-0 35958-3 0 9999 2 40910 97.4563 303.8293 0017880 131.5768 6.2328 15.12167978 4948 XW-2B 1 40911U 15049N 15296.44567896 .00004735 00000-0 27653-3 0 9991 2 40911 97.4576 303.8409 0016192 131.8092 5.7034 15.12278645 4953 DCBB 1 40912U 15049P 15296.41172698 .00006500 00000-0 36096-3 0 9994 2 40912 97.4580 303.8858 0018569 130.1868 12.0608 15.13916397 4952 TW-1C 1 40926U 15051B 15296.38440966 .00017863 00000-0 60748-3 0 9999 2 40926 97.3078 331.4292 0016839 174.2418 282.4624 15.30363901 4312 TW-1C 1 40928U 15051D 15296.51341530 .00009066 00000-0 31016-3 0 9995 2 40928 97.3025 331.5429 0014695 182.1721 284.0720 15.30372014 4334 IO-86 1 40931U 15052B 15296.22929120 .00000911 00000-0 38315-4 0 9995 2 40931 6.0020 211.5586 0013551 352.3747 7.6213 14.76358247 3707 AAUSat-5 1 40948U 98067GZ 15296.01730747 .00081402 00000-0 11015-2 0 9992 2 40948 51.6417 165.8801 0008094 77.8207 282.3691 15.56967764 2719 GomX-3 1 40949U 98067HA 15296.21218302 .00068505 00000-0 94311-3 0 9993 2 40949 51.6419 164.9321 0008491 77.5355 282.6587 15.56574176 2742 LQSat 1 40958U 15057A 15296.52682496 .00000457 00000-0 79438-4 0 9990 2 40958 98.0406 9.2477 0017820 190.8043 169.2788 14.72721096 2403 AO-85 1 40967U 15296.39702964 +.00003345 +00000-0 +36061-3 0 00196 2 40967 064.7805 246.6364 0218054 277.4590 223.9805 14.74306821002055 /EX
